Flag for U.S.A. Weather past 2 weeks in Atlanta, Georgia, U.S.A.

Now
47 °F

Overcast.


Feels Like: N/A
Forecast: 44 / 57 °F
Wind: N/A

Location: Fulton County Airport-Brown Field

Current Time: Mar 27, 2015 at 11:44:58 AM

Latest Report: Mar 27, 2015 at 10:53 AM


Visibility: 10 mi

Pressure: 29.85 "Hg

Humidity: 71%

Dew point: 38 °F

Location of AtlantaLocation

Historic Weather in Atlanta — Graph

°F

Atlanta temperature yesterday

Maximum temperature yesterday: 73 °F (at 2:53 PM)
Minimum temperature yesterday: 62 °F (at 5:53 AM)
Average temperature yesterday: 67 °F

Past Weeks' High & Low Weather Summary

 TemperatureHumidityPressure
High81 °F (Mar 16, 4:53 PM)97% (Mar 14, 9:53 AM)30.38 "Hg (Mar 14, 9:53 AM)
Low41 °F (Mar 16, 5:53 AM)12% (Mar 16, 5:53 PM)29.75 "Hg (Mar 27, 4:53 AM)
Average59 °F70%30.08 "Hg
* Reported Mar 12 10:53 AM — Mar 27 10:53 AM, Atlanta, Weather by CustomWeather, © 2015

Note: Actual official high and low records may vary slightly from our data, if they occured in-between our weather recording intervals... More about our weather records

Advertising

Atlanta weather history for previous 24 hours

 ConditionsComfort  
Time TempWeatherWind HumidityBarometerVisibility
10:53 AM
Fri, Mar 27
47 °FOvercast.N/A71%29.85 "Hg10 mi
10:00 AM46 °FOvercast.20 mph73%29.85 "Hg10 mi
8:53 AM46 °FOvercast.12 mph77%29.82 "Hg10 mi
7:53 AM46 °FOvercast.16 mph79%29.78 "Hg10 mi
6:53 AM47 °FOvercast.7 mph83%29.76 "Hg10 mi
5:53 AM48 °FLow clouds.10 mph86%29.75 "Hg10 mi
5:04 AM49 °FOvercast.7 mph84%29.77 "Hg10 mi
4:53 AM49 °FLow clouds.8 mph84%29.75 "Hg10 mi
3:53 AM50 °FLow clouds.8 mph86%29.75 "Hg10 mi
3:00 AM51 °FLow clouds.16 mph89%29.77 "Hg10 mi
2:00 AM53 °FLow clouds.10 mph86%29.78 "Hg10 mi
1:53 AM54 °FPassing clouds.7 mph86%29.77 "Hg7 mi
12:53 AM55 °FLight rain. Mostly cloudy.12 mph90%29.78 "Hg10 mi
11:53 PM
Thu, Mar 26
66 °FMostly cloudy.6 mph68%29.77 "Hg10 mi
10:53 PM66 °FPassing clouds.6 mph63%29.76 "Hg10 mi
9:53 PM67 °FMostly cloudy.No wind61%29.75 "Hg10 mi
8:53 PM68 °FSunny.5 mph57%29.75 "Hg10 mi
7:53 PM70 °FSunny.6 mph51%29.76 "Hg10 mi
6:53 PM72 °FSunny.6 mph46%29.78 "Hg10 mi
5:53 PM72 °FSunny.6 mph46%29.78 "Hg10 mi
4:53 PM73 °FSunny.7 mph44%29.79 "Hg10 mi
3:53 PM73 °FPassing clouds.7 mph44%29.82 "Hg10 mi
2:53 PM73 °FPassing clouds.12 mph44%29.84 "Hg10 mi
1:53 PM71 °FMostly cloudy.9 mph53%29.88 "Hg10 mi
12:53 PM70 °FPartly sunny.13 mph57%29.90 "Hg10 mi
11:53 AM69 °FPartly sunny.10 mph61%29.92 "Hg10 mi
Weather by CustomWeather, © 2015

See weather overviewHow to use our weather pages